Location: Del Amo
(33.8464°N, 118.2104°W)
Time: 08:57:19
(UTC+00:00)

Vanguard 1 Rocket - Pass Details

Date: 15 September 2024
Orbit: 650 x 4218 km, 34.3° (Epoch: 09 October)

Event Time Altitude Azimuth Distance (km) Brightness Sun altitude
Rises 10:01:58 0° 224° (SW) 4,681 - -41.7°
Reaches altitude 10° 10:04:32 10° 219° (SW) 4,032 - -41.3°
Exits shadow 10:13:50 53° 167° (SSE) 2,923 9.6 -39.8°
Maximum altitude 10:15:48 56° 144° (SE) 3,036 9.8 -39.5°
Drops below altitude 10° 10:36:44 10° 74° (ENE) 7,073 12.6 -36.0°
Sets 10:43:05 0° 71° (ENE) 8,350 13.3 -34.9°
